SUN008 RJOO-RJFF

Flight info

Callsign SUN008
Flight time 1h 5m
Altitude 38000
Route TIGER SUMAR AYAME SETOH SOUJA Y281 STOUT Y20 KIRIN
Aircraft A20N/M-SDE2E3FGHIRWXY/LB1

Departure

Time 2026-04-27 16:41
Airport Osaka Itami International Airport (RJOO)

Arrival

Time 2026-04-27 17:46
Airport Fukuoka Airport (RJFF)
Time Latitude Longitude Altitude Speed Heading
2026-04-27 16:08 34.79182 135.43845 50 ft 0 kts 27°
2026-04-27 16:28 34.79176 135.43842 50 ft 2 kts 26°
2026-04-27 16:28 34.79147 135.43824 46 ft 2 kts 27°
2026-04-27 16:29 34.79103 135.43797 48 ft 2 kts 26°
2026-04-27 16:30 34.79074 135.43778 47 ft 2 kts 46°
2026-04-27 16:30 34.79064 135.43742 44 ft 2 kts 113°
2026-04-27 16:31 34.79091 135.43703 48 ft 0 kts 135°
2026-04-27 16:31 34.79092 135.43702 48 ft 0 kts 135°
2026-04-27 16:34 34.79086 135.43710 47 ft 4 kts 135°
2026-04-27 16:34 34.79054 135.43748 47 ft 9 kts 136°
2026-04-27 16:35 34.79002 135.43811 49 ft 12 kts 133°
2026-04-27 16:35 34.78935 135.43895 49 ft 15 kts 134°
2026-04-27 16:35 34.78754 135.44112 46 ft 21 kts 135°
2026-04-27 16:36 34.78649 135.44240 47 ft 22 kts 135°
2026-04-27 16:36 34.78543 135.44338 47 ft 18 kts 182°
2026-04-27 16:36 34.78405 135.44335 46 ft 22 kts 180°
2026-04-27 16:36 34.78246 135.44336 45 ft 22 kts 180°
2026-04-27 16:37 34.78116 135.44410 46 ft 22 kts 135°
2026-04-27 16:37 34.78005 135.44543 46 ft 22 kts 135°
2026-04-27 16:37 34.77930 135.44634 47 ft 24 kts 133°
2026-04-27 16:37 34.77771 135.44827 47 ft 24 kts 136°
2026-04-27 16:38 34.77687 135.44916 49 ft 24 kts 151°
2026-04-27 16:38 34.77553 135.44992 48 ft 22 kts 155°
2026-04-27 16:38 34.77440 135.44990 50 ft 16 kts 225°
2026-04-27 16:38 34.77420 135.44937 48 ft 3 kts 319°
2026-04-27 16:39 34.77424 135.44933 49 ft 0 kts 317°
2026-04-27 16:40 34.77432 135.44924 50 ft 11 kts 317°
2026-04-27 16:40 34.77655 135.44658 48 ft 81 kts 315°
2026-04-27 16:40 34.78199 135.43997 47 ft 137 kts 315°
2026-04-27 16:40 34.78939 135.43087 374 ft 153 kts 314°
2026-04-27 16:41 34.79710 135.42205 938 ft 153 kts 317°
2026-04-27 16:41 34.80483 135.41267 1426 ft 163 kts 298°
2026-04-27 16:41 34.80671 135.39905 1873 ft 173 kts 255°
2026-04-27 16:41 34.80002 135.38654 2279 ft 189 kts 215°
2026-04-27 16:42 34.78695 135.38153 2720 ft 212 kts 181°
2026-04-27 16:42 34.77140 135.38245 3262 ft 236 kts 178°
2026-04-27 16:42 34.75422 135.38281 3850 ft 257 kts 184°
2026-04-27 16:42 34.73601 135.38070 4683 ft 266 kts 190°
2026-04-27 16:43 34.71765 135.37679 5643 ft 271 kts 193°
2026-04-27 16:43 34.69900 135.37188 6539 ft 279 kts 195°
2026-04-27 16:43 34.68000 135.36651 7500 ft 280 kts 195°
2026-04-27 16:43 34.66166 135.35907 8506 ft 277 kts 215°
2026-04-27 16:44 34.64878 135.34244 9494 ft 271 kts 243°
2026-04-27 16:44 34.64189 135.32116 10413 ft 274 kts 259°
2026-04-27 16:44 34.64217 135.29743 10870 ft 294 kts 282°
2026-04-27 16:44 34.65013 135.27355 11266 ft 316 kts 294°
2026-04-27 16:45 34.65989 135.24930 12090 ft 319 kts 291°
2026-04-27 16:45 34.66814 135.22442 13112 ft 317 kts 287°
2026-04-27 16:45 34.67482 135.19884 14030 ft 317 kts 283°
2026-04-27 16:45 34.68044 135.17278 14815 ft 319 kts 281°
2026-04-27 16:46 34.68560 135.14644 15597 ft 322 kts 280°
2026-04-27 16:46 34.69068 135.11980 16374 ft 325 kts 280°
2026-04-27 16:46 34.69578 135.09297 17141 ft 327 kts 280°
2026-04-27 16:46 34.70094 135.06594 17914 ft 330 kts 280°
2026-04-27 16:47 34.70445 135.03832 18611 ft 331 kts 272°
2026-04-27 16:47 34.70450 135.01079 19324 ft 330 kts 265°
2026-04-27 16:47 34.70120 134.98315 20025 ft 332 kts 258°
2026-04-27 16:47 34.69592 134.95582 20710 ft 333 kts 258°
2026-04-27 16:48 34.69072 134.92836 21403 ft 334 kts 258°
2026-04-27 16:48 34.68554 134.90080 22088 ft 335 kts 259°
2026-04-27 16:48 34.68035 134.87319 22755 ft 337 kts 259°
2026-04-27 16:49 34.66985 134.81750 23996 ft 339 kts 259°
2026-04-27 16:49 34.66455 134.78951 24536 ft 341 kts 259°
2026-04-27 16:49 34.65921 134.76136 25055 ft 343 kts 259°
2026-04-27 16:49 34.65383 134.73310 25522 ft 345 kts 259°
2026-04-27 16:50 34.64842 134.70468 25994 ft 347 kts 259°
2026-04-27 16:50 34.64297 134.67607 26489 ft 348 kts 260°
2026-04-27 16:50 34.63748 134.64733 26964 ft 350 kts 260°
2026-04-27 16:50 34.63197 134.61846 27430 ft 352 kts 260°
2026-04-27 16:51 34.62640 134.58943 27904 ft 353 kts 260°
2026-04-27 16:51 34.62082 134.56030 28342 ft 355 kts 260°
2026-04-27 16:51 34.61519 134.53096 28760 ft 357 kts 260°
2026-04-27 16:51 34.60953 134.50150 29164 ft 359 kts 261°
2026-04-27 16:52 34.60385 134.47198 29569 ft 360 kts 261°
2026-04-27 16:52 34.59813 134.44224 29888 ft 363 kts 261°
2026-04-27 16:52 34.59236 134.41232 30255 ft 364 kts 261°
2026-04-27 16:52 34.58658 134.38240 30641 ft 365 kts 261°
2026-04-27 16:53 34.58078 134.35239 30980 ft 366 kts 261°
2026-04-27 16:53 34.57496 134.32233 31374 ft 366 kts 261°
2026-04-27 16:53 34.56913 134.29234 31835 ft 364 kts 261°
2026-04-27 16:53 34.56335 134.26257 32310 ft 361 kts 261°
2026-04-27 16:54 34.55759 134.23301 32761 ft 359 kts 261°
2026-04-27 16:54 34.55189 134.20358 33252 ft 356 kts 262°
2026-04-27 16:54 34.54795 134.17419 33697 ft 351 kts 266°
2026-04-27 16:54 34.54682 134.14469 34015 ft 350 kts 271°
2026-04-27 16:55 34.54847 134.11528 34314 ft 350 kts 276°
2026-04-27 16:55 34.55279 134.08628 34645 ft 349 kts 281°
2026-04-27 16:55 34.55902 134.05784 34968 ft 348 kts 282°
2026-04-27 16:55 34.56522 134.02949 35288 ft 347 kts 282°
2026-04-27 16:56 34.57132 134.00130 35652 ft 344 kts 282°
2026-04-27 16:56 34.57736 133.97327 35997 ft 342 kts 282°
2026-04-27 16:56 34.58336 133.94532 36291 ft 341 kts 282°
2026-04-27 16:56 34.58934 133.91750 36568 ft 340 kts 282°
2026-04-27 16:57 34.59530 133.88971 36827 ft 340 kts 282°
2026-04-27 16:57 34.60124 133.86202 37085 ft 339 kts 282°
2026-04-27 16:57 34.60717 133.83433 37333 ft 338 kts 282°
2026-04-27 16:57 34.61303 133.80680 37633 ft 336 kts 281°
2026-04-27 16:58 34.61749 133.77911 37889 ft 334 kts 277°
2026-04-27 16:58 34.61999 133.75109 37968 ft 333 kts 273°
2026-04-27 16:58 34.61932 133.69501 37967 ft 333 kts 266°
2026-04-27 16:59 34.61180 133.63937 37970 ft 334 kts 263°
2026-04-27 16:59 34.60325 133.58386 37971 ft 335 kts 263°
2026-04-27 17:00 34.59043 133.50084 37975 ft 335 kts 263°
2026-04-27 17:01 34.58171 133.44500 37964 ft 335 kts 263°
2026-04-27 17:01 34.57309 133.38992 37975 ft 334 kts 263°
2026-04-27 17:02 34.56439 133.33462 37966 ft 333 kts 263°
2026-04-27 17:02 34.55568 133.27940 37963 ft 335 kts 263°
2026-04-27 17:03 34.54684 133.22331 37993 ft 339 kts 263°
2026-04-27 17:03 34.53800 133.16762 37973 ft 335 kts 263°
2026-04-27 17:04 34.52915 133.11190 37970 ft 337 kts 263°
2026-04-27 17:04 34.52024 133.05606 37965 ft 337 kts 263°
2026-04-27 17:05 34.51132 133.00023 37969 ft 339 kts 262°
2026-04-27 17:05 34.50236 132.94430 37978 ft 340 kts 262°
2026-04-27 17:06 34.49321 132.88754 37987 ft 341 kts 262°
2026-04-27 17:06 34.48411 132.83124 37970 ft 339 kts 262°
2026-04-27 17:07 34.47503 132.77515 37973 ft 340 kts 262°
2026-04-27 17:07 34.46592 132.71899 37974 ft 340 kts 262°
2026-04-27 17:08 34.45678 132.66294 37956 ft 339 kts 262°
2026-04-27 17:08 34.44756 132.60633 38006 ft 344 kts 262°
2026-04-27 17:09 34.43835 132.55025 37967 ft 340 kts 262°
2026-04-27 17:09 34.42910 132.49398 37972 ft 341 kts 262°
2026-04-27 17:10 34.41981 132.43763 37978 ft 341 kts 262°
2026-04-27 17:10 34.41050 132.38139 37970 ft 341 kts 262°
2026-04-27 17:11 34.40139 132.32528 37966 ft 338 kts 262°
2026-04-27 17:11 34.38840 132.24080 37972 ft 343 kts 262°
2026-04-27 17:12 34.37516 132.15593 37976 ft 341 kts 262°
2026-04-27 17:13 34.36628 132.09944 37988 ft 342 kts 262°
2026-04-27 17:13 34.35737 132.04288 37976 ft 342 kts 262°
2026-04-27 17:14 34.34843 131.98631 37983 ft 340 kts 262°
2026-04-27 17:14 34.33948 131.92984 37972 ft 344 kts 262°
2026-04-27 17:15 34.33050 131.87338 37980 ft 340 kts 261°
2026-04-27 17:15 34.32147 131.81668 37701 ft 345 kts 261°
2026-04-27 17:15 34.31692 131.78829 37388 ft 343 kts 261°
2026-04-27 17:16 34.31236 131.75983 36652 ft 348 kts 262°
2026-04-27 17:16 34.30774 131.73098 35960 ft 349 kts 262°
2026-04-27 17:16 34.30311 131.70219 35238 ft 349 kts 262°
2026-04-27 17:16 34.29845 131.67322 34406 ft 352 kts 262°
2026-04-27 17:17 34.29379 131.64423 33667 ft 352 kts 261°
2026-04-27 17:17 34.28908 131.61511 32930 ft 352 kts 261°
2026-04-27 17:17 34.28437 131.58600 32168 ft 353 kts 261°
2026-04-27 17:18 34.27651 131.53736 30866 ft 357 kts 261°
2026-04-27 17:18 34.27174 131.50796 30349 ft 359 kts 261°
2026-04-27 17:18 34.26686 131.47792 29800 ft 368 kts 261°
2026-04-27 17:18 34.26190 131.44748 29186 ft 369 kts 261°
2026-04-27 17:19 34.25696 131.41723 28586 ft 365 kts 261°
2026-04-27 17:19 34.25207 131.38739 28004 ft 359 kts 260°
2026-04-27 17:19 34.24724 131.35795 27399 ft 355 kts 260°
2026-04-27 17:19 34.24247 131.32885 26822 ft 351 kts 260°
2026-04-27 17:20 34.23774 131.30005 26252 ft 347 kts 260°
2026-04-27 17:20 34.23307 131.27159 25685 ft 344 kts 260°
2026-04-27 17:20 34.22841 131.24332 25089 ft 342 kts 260°
2026-04-27 17:20 34.22379 131.21526 24501 ft 341 kts 259°
2026-04-27 17:21 34.21917 131.18731 23946 ft 338 kts 259°
2026-04-27 17:21 34.21459 131.15955 23321 ft 337 kts 259°
2026-04-27 17:21 34.21001 131.13194 22775 ft 333 kts 259°
2026-04-27 17:21 34.20549 131.10470 22217 ft 329 kts 259°
2026-04-27 17:22 34.20100 131.07771 21638 ft 326 kts 259°
2026-04-27 17:22 34.19653 131.05093 21095 ft 324 kts 259°
2026-04-27 17:22 34.19162 131.02442 20532 ft 323 kts 256°
2026-04-27 17:22 34.18465 130.99896 19961 ft 324 kts 251°
2026-04-27 17:23 34.17565 130.97360 19403 ft 325 kts 249°
2026-04-27 17:23 34.16666 130.94849 18803 ft 326 kts 249°
2026-04-27 17:23 34.15771 130.92333 18194 ft 328 kts 249°
2026-04-27 17:23 34.14873 130.89806 17627 ft 326 kts 249°
2026-04-27 17:24 34.13979 130.87289 17041 ft 325 kts 249°
2026-04-27 17:24 34.13101 130.84821 16462 ft 324 kts 249°
2026-04-27 17:24 34.12131 130.82330 15891 ft 324 kts 244°
2026-04-27 17:24 34.10943 130.80053 15313 ft 326 kts 238°
2026-04-27 17:25 34.09616 130.77792 14719 ft 325 kts 238°
2026-04-27 17:25 34.08312 130.75553 14092 ft 326 kts 238°
2026-04-27 17:25 34.07033 130.73348 13535 ft 325 kts 238°
2026-04-27 17:25 34.05740 130.71117 12930 ft 323 kts 238°
2026-04-27 17:26 34.04453 130.68903 12368 ft 322 kts 238°
2026-04-27 17:26 34.03172 130.66698 11791 ft 320 kts 238°
2026-04-27 17:26 34.01899 130.64508 11217 ft 319 kts 238°
2026-04-27 17:26 34.00626 130.62317 10643 ft 318 kts 238°
2026-04-27 17:27 33.99639 130.59989 10371 ft 304 kts 253°
2026-04-27 17:27 33.99250 130.57560 10269 ft 288 kts 267°
2026-04-27 17:27 33.99336 130.55209 10168 ft 274 kts 274°
2026-04-27 17:27 33.99479 130.52974 10065 ft 261 kts 273°
2026-04-27 17:28 33.99622 130.50808 9983 ft 261 kts 277°
2026-04-27 17:28 34.00121 130.48697 9973 ft 264 kts 292°
2026-04-27 17:28 34.02286 130.45089 9704 ft 266 kts 305°
2026-04-27 17:29 34.03429 130.43393 9607 ft 255 kts 304°
2026-04-27 17:29 34.04518 130.41775 9509 ft 242 kts 304°
2026-04-27 17:29 34.05540 130.40230 9406 ft 229 kts 300°
2026-04-27 17:29 34.06211 130.38553 9164 ft 218 kts 282°
2026-04-27 17:30 34.06394 130.36785 9071 ft 212 kts 272°
2026-04-27 17:30 34.06580 130.33213 9011 ft 213 kts 273°
2026-04-27 17:30 34.06688 130.31428 9011 ft 214 kts 273°
2026-04-27 17:31 34.06796 130.29643 9002 ft 214 kts 273°
2026-04-27 17:31 34.06901 130.27854 9008 ft 214 kts 272°
2026-04-27 17:31 34.06819 130.26064 9009 ft 214 kts 261°
2026-04-27 17:31 34.06422 130.24334 9011 ft 215 kts 252°
2026-04-27 17:32 34.05928 130.22631 9008 ft 215 kts 253°
2026-04-27 17:32 34.04975 130.19226 9011 ft 214 kts 253°
2026-04-27 17:32 34.04501 130.17522 9011 ft 214 kts 253°
2026-04-27 17:33 34.04027 130.15817 9013 ft 215 kts 252°
2026-04-27 17:33 34.03402 130.14176 9012 ft 217 kts 241°
2026-04-27 17:33 34.02485 130.12720 9012 ft 220 kts 232°
2026-04-27 17:33 34.01465 130.11350 9011 ft 219 kts 232°
2026-04-27 17:34 34.00457 130.09971 9014 ft 219 kts 233°
2026-04-27 17:34 33.99453 130.08588 9014 ft 219 kts 233°
2026-04-27 17:34 33.98451 130.07206 9014 ft 219 kts 233°
2026-04-27 17:34 33.97448 130.05823 9014 ft 219 kts 232°
2026-04-27 17:35 33.96316 130.04588 9001 ft 223 kts 220°
2026-04-27 17:35 33.94946 130.03650 9013 ft 229 kts 211°
2026-04-27 17:35 33.93515 130.02821 9017 ft 228 kts 212°
2026-04-27 17:35 33.92090 130.01981 9015 ft 228 kts 212°
2026-04-27 17:36 33.90666 130.01135 9011 ft 228 kts 212°
2026-04-27 17:36 33.89140 130.00561 9012 ft 237 kts 188°
2026-04-27 17:36 33.87507 130.00988 9009 ft 250 kts 157°
2026-04-27 17:36 33.86181 130.02394 8862 ft 262 kts 127°
2026-04-27 17:37 33.85453 130.04396 8526 ft 270 kts 107°
2026-04-27 17:37 33.85043 130.06615 8179 ft 271 kts 102°
2026-04-27 17:37 33.84692 130.08835 7869 ft 270 kts 102°
2026-04-27 17:37 33.84302 130.11031 7585 ft 267 kts 104°
2026-04-27 17:38 33.83867 130.13193 7296 ft 265 kts 106°
2026-04-27 17:38 33.83403 130.15334 7004 ft 264 kts 107°
2026-04-27 17:38 33.82925 130.17454 6727 ft 262 kts 107°
2026-04-27 17:38 33.82445 130.19556 6443 ft 260 kts 107°
2026-04-27 17:39 33.81968 130.21640 6116 ft 256 kts 107°
2026-04-27 17:39 33.81498 130.23697 5630 ft 254 kts 107°
2026-04-27 17:39 33.81025 130.25769 5151 ft 252 kts 108°
2026-04-27 17:39 33.80567 130.27788 4731 ft 249 kts 109°
2026-04-27 17:40 33.79899 130.29658 4320 ft 237 kts 131°
2026-04-27 17:40 33.78796 130.31026 4171 ft 227 kts 147°
2026-04-27 17:40 33.77524 130.32071 3929 ft 215 kts 154°
2026-04-27 17:40 33.76256 130.32944 3676 ft 205 kts 156°
2026-04-27 17:41 33.75039 130.33780 3436 ft 197 kts 155°
2026-04-27 17:41 33.73894 130.34569 3208 ft 184 kts 156°
2026-04-27 17:41 33.72814 130.35311 2956 ft 174 kts 155°
2026-04-27 17:41 33.71811 130.36002 2730 ft 158 kts 155°
2026-04-27 17:42 33.70919 130.36616 2546 ft 139 kts 155°
2026-04-27 17:42 33.70119 130.37165 2362 ft 128 kts 155°
2026-04-27 17:42 33.69330 130.37704 2192 ft 130 kts 154°
2026-04-27 17:42 33.68551 130.38244 2027 ft 129 kts 154°
2026-04-27 17:43 33.67780 130.38765 1868 ft 129 kts 155°
2026-04-27 17:43 33.66995 130.39301 1694 ft 130 kts 152°
2026-04-27 17:43 33.66212 130.39838 1517 ft 130 kts 152°
2026-04-27 17:43 33.65429 130.40385 1331 ft 129 kts 152°
2026-04-27 17:44 33.64647 130.40920 1176 ft 131 kts 153°
2026-04-27 17:44 33.63865 130.41464 1018 ft 129 kts 152°
2026-04-27 17:44 33.63081 130.42004 827 ft 129 kts 152°
2026-04-27 17:44 33.62306 130.42537 623 ft 127 kts 151°
2026-04-27 17:45 33.61539 130.43070 445 ft 128 kts 151°
2026-04-27 17:45 33.60756 130.43606 292 ft 128 kts 153°
2026-04-27 17:45 33.59992 130.44119 141 ft 127 kts 152°
2026-04-27 17:45 33.59229 130.44622 32 ft 120 kts 149°
2026-04-27 17:46 33.58676 130.45010 30 ft 51 kts 150°
2026-04-27 17:46 33.58407 130.45196 32 ft 39 kts 151°
2026-04-27 17:46 33.58173 130.45263 33 ft 28 kts 180°
2026-04-27 17:46 33.58017 130.45261 33 ft 10 kts 180°
2026-04-27 17:47 33.57999 130.45261 34 ft 0 kts 180°
2026-04-27 17:47 33.57994 130.45262 34 ft 2 kts 177°
2026-04-27 17:47 33.57961 130.45273 34 ft 2 kts 155°
2026-04-27 17:47 33.57944 130.45284 34 ft 5 kts 151°
2026-04-27 17:48 33.57904 130.45310 34 ft 8 kts 151°
2026-04-27 17:48 33.57847 130.45345 34 ft 9 kts 174°
2026-04-27 17:48 33.57811 130.45288 35 ft 10 kts 273°
2026-04-27 17:48 33.57869 130.45230 34 ft 13 kts 330°
2026-04-27 17:49 33.57958 130.45165 34 ft 17 kts 329°
2026-04-27 17:49 33.58068 130.45081 31 ft 20 kts 329°
2026-04-27 17:49 33.58202 130.44991 32 ft 24 kts 330°
2026-04-27 17:49 33.58345 130.44892 31 ft 21 kts 329°
2026-04-27 17:50 33.58391 130.44805 30 ft 9 kts 242°
2026-04-27 17:50 33.58480 130.44701 29 ft 13 kts 331°
2026-04-27 17:50 33.58538 130.44640 29 ft 4 kts 267°
2026-04-27 17:51 33.58514 130.44605 29 ft 7 kts 233°
2026-04-27 17:51 33.58490 130.44555 29 ft 0 kts 242°